Location: �terpigny
(49.8910°N, 2.9249°E)
Time: 10:13:34
(UTC+00:00)

Cosmos 44 - Pass Details

Date: 24 October 2021
Orbit: 579 x 782 km, 65.1° (Epoch: 30 November)

Event Time Altitude Azimuth Distance (km) Brightness Sun altitude
Rises 18:32:42 0° 206° (SSW) 3,255 7.0 -18.8°
Reaches altitude 10° 18:35:08 10° 203° (SSW) 2,332 6.2 -19.2°
Maximum altitude 18:40:26 62° 124° (SE) 875 3.5 -20.1°
Enters shadow 18:42:32 35° 58° (ENE) 1,221 4.1 -20.4°
